Location: Colle Santa Colomba
(42.0333°N, 12.5667°E)
Time: 20:45:45
(UTC+00:00)

USA 215 - Pass Details

Date: 25 October 2021
Orbit: 1099 x 1109 km, 123.0° (Epoch: 20 November)

Event Time Altitude Azimuth Distance (km) Brightness Sun altitude
Exits shadow 16:36:48 - 46° (NE) 3,926 5.6 -5.1°
Rises 16:36:48 0° 46° (NE) 3,923 5.6 -5.1°
Reaches altitude 10° 16:39:18 10° 44° (NE) 2,964 5.0 -5.6°
Maximum altitude 16:45:45 65° 325° (NW) 1,207 3.7 -6.8°
Drops below altitude 10° 16:52:12 10° 245° (WSW) 2,960 7.0 -7.9°
Sets 16:54:42 0° 242° (WSW) 3,917 7.8 -8.4°
